Погода в Ванаваре

Погода в Ванаваре : погода сейчас, прогноз погоды и архив. Всё, что Вы хотите узнать о погоде в Ванаваре!

Хотите узнать прогноз погоды в Ванаваре? Тогда Вам сюда: Погода в Ванаваре

Поиск расширенной информации на нашем сайте:

Другие новости

Новости СМИ2

Главная страница сайта

Новости сайта

03.07.2017

Напоминаем, что на нашем специализированном сайте Метеоцентр.Азия вы можете получить высокодетализированные автоматические прогнозы погоды по пунктам России, СНГ и мира в авиационном формате (включающие направление и скорость ветра, видимость, явления погоды, количество и форму облачности, нижнюю и верхнюю границу облачности).


Погода в Ванаваре - сегодня

Время (UTC), дата Ветер
(°,м/с) 
Видим.   Явления Облачность Т
(°С)
Тd
(°С)
f(%) Тe
(°С)
Pmin
(гПа)
dP
(гПа)
Po
(мм)
O2
(г/м3)
Тmin Tmax R s Состояние
почвы
15 18.04.18 290 (З) 20000 м    10/0 верхняя 
[Ci fib]
-4.1 -12.4 52 -5  1011.3  2.9  734  301           
18 18.04.18 260 (З) 20000 м    10/0 верхняя 
[Ci fib]
-6.6 -12.7 62 -6  1013.3  1.6  735  305           
21 18.04.18 270 (З) 20000 м    10/0 верхняя 
[Ci fib]
-9 -13.3 71 -9  1014.8  1.2  736  308           
00 19.04.18 270 (З) 20000 м    10/3 1000 м верхняя 
[Sc|Ci fib]
-7.9 -13.8 63 -9  1016.3  1.5  737  307  -9.5      23  равномерный
сухой снег
100% 
03 19.04.18 280 (З) 20000 м    10/8 1000 м верхняя 
[Cu med, cong|Ci fib]
-5.6 -13.9 52 -7  1016.7  0.7  738  305           
06 19.04.18 250 (З) 20000 м    10/9 600 м кучево-дожд., верхняя 
[Cb cap|Ci fib]
-3.8 -13.8 46 -5  1016.3  -0.1  738  303           
09 19.04.18 280 (З) 20000 м    10/8 1000 м верхняя 
[Cu med, cong|Ci fib]
-3.1 -13 46 -4  1016.6  0.3  738  302           
12 19.04.18 280 (З) 20000 м    5/3 1000 м верхняя 
[Cu med, cong|Ci fib]
-4.2 -14.6 44 -4  1016.9  0.2  738  303    -2.4       
15 19.04.18 230 (ЮЗ) 20000 м    1/0 верхняя 
[Ci fib]
-11 -13.9 79 -11  1018.7  0.9  739  311           
18 19.04.18 220 (ЮЗ) 20000 м    ясно 
-15.2 -16.1 93 -15  1020.3  739  317           
21 19.04.18 тихо ()   20000 м    ясно 
-18.4 -19.3 93 -18  1021.4  0.7  740  321           
00 20.04.18 тихо ()   20000 м    10/0 верхняя 
[Cs]
-12.3 -15.2 79 -12  1021.3  0.7  740  314  -18.7      22  равномерный
сухой снег
100% 
03 20.04.18 230 (ЮЗ) 20000 м    10/0 средняя, верхняя 
[Ac trans|Ci fib]
-0.7 -13.4 38 -3  1020.4  0.5  741  300           
06 20.04.18 230 (ЮЗ) 20000 м    10/4 1000 м верхняя 
[Cu hum|Cs]
+1.6 -12.6 34 -1  1019.6  -0.5  740  298           
09 20.04.18 240 (ЮЗ) 20000 м    10/6 1000 м верхняя 
[Cu Sc|Ci fib]
+3 -11.2 34 +2  1018.9  -0.5  740  296           
12 20.04.18 230 (ЮЗ) 20000 м    10/3 1000 м средняя, верхняя 
[Sc|Ac trans|Ci fib]
+0.7 -11.6 39 +1  1019.3  0.1  740  298    +3.1       
15 20.04.18 190 (Ю) 20000 м    10/0 средняя, верхняя 
[Ac trans|Cs]
-2.3 -10.5 53 -2  1019.6  740  302           
18 20.04.18 170 (Ю) 20000 м    10/0 верхняя 
[Cs]
-4.4 -10.4 63 -4  1019.6  -0.3  740  304           
21 20.04.18 170 (Ю) 20000 м    10/6 1000 м средняя, верхняя 
[Sc|Ac trans|Cs]
-3.8 -10.8 58 -3  1019.3  -0.2  740  303           
00 21.04.18 190 (Ю) 20000 м    10/4 1000 м средняя, верхняя 
[Sc|Ac trans|Cs]
+0.2 -11.8 40 +1  1017.9  -0.9  739  299  -5.5      20  равномерный
сухой снег
100% 
03 21.04.18 230 (ЮЗ) 4{11}  20000 м    10/0 верхняя 
[Ci fib]
+6.8 -9.3 31 +5  1015.6  -1.5  738  291           
12 21.04.18 240 (ЮЗ) 4{14}  20000 м    10/10 600 м кучево-дожд. 
[Cb cap]
+6.7 -3.8 47 +5  1013.6  0.2  737  290    +8.1       
18 21.04.18 220 (ЮЗ) 4{14}  20000 м    10/10 600 м кучево-дожд. 
[Cb cap]
+6.3 -1.3 58 +5  1012.6  736  290           
21 21.04.18 220 (ЮЗ) 20000 м    10/10 600 м кучево-дожд. 
[Cb cap]
+5.8 -0.7 63 +6  1012.7  736  290           
00 22.04.18 220 (ЮЗ) 20000 м    10/4 1000 м средняя, верхняя 
[Sc|Ac trans|Cs]
+6.8 -1.7 55 +6  1012.4  -0.1  736  289  +5.7      18  равномерный
мокрый или
старый снег
100% 
Время (UTC), дата Ветер
(°,м/с) 
Видим.   Явления Облачность Т
(°С)
Тd
(°С)
f(%) Тe
(°С)
Pmin
(гПа)
dP
(гПа)
Po
(мм)
O2
(г/м3)
Тmin Tmax R s Состояние
почвы

Для получения пояснительной информации подведите курсор к названию столбца.

ПОГОДА в Ванаваре - архив

Всё, что Вы хотите узнать о погоде в Ванаваре - удобно и подробно!

Выберите нужную дату (начиная с 1 января 2015* года) и нажмите кнопку "Найти".
Будут отображены архивные сводки погоды по пункту Ванавара, начиная с указанной даты.


Отображать данные в формате CSV (для использования в таблицах Excel)


Внимание! Наш архив погоды предназначен исключительно для личного некоммерческого использования в познавательных целях. Если Вам необходимы официальные справки о состоянии погоды (для производственных, юридических, коммерческих и т.п. целей), обращайтесь в органы Росгидромета.

*Примечание: данная дата относится к архиву по метеостанциям СССР (Россия, СНГ, Балтия).
Архив по метеостанциям Зарубежной Европы и Азии (кроме Китая) хранится 10 дней, по другим регионам земного шара (Китай, Африка, Америка, Австралия, Океания) - 1 день.

Ванавара - район местоположения метеостанции


Название, широта, долгота, высота метеостанции:
Ванавара 60.3°ш. 102.3°д. 260 м над ур. моря [Российская Федерация]

Дополнительная информация

В oтличие oт бoльшинства пoгoдных сайтoв мы публикуем пoдрoбную метеoинфoрмацию в детальнoм прoфессиoнальнoм фoрмате.

Характеристики температуры и влажнoсти вoздуха измеряются на высoте 2 м в тени вдали oт зданий и деревьев.
Скoрoсть ветра измеряется на высoте 10 м (на урoвне рoста челoвека скoрoсть ветра ниже в 1.5-2 раза). Если метеoстанция нахoдится в гoрoде или в лесу, тo скoрoсть ветра занижена на 2-4 м/с пo сравнению с oткрытым местoм. Скoрoсть ветра над акватoриями крупных рек и oзёр, а также на вершинах хoлмoв на 2-5 м/с выше, чем в oбычных услoвиях.
Атмoсфернoе давление в разных тoчках местнoсти мoжет значительнo oтличаться oт давления на метеoстанции, в зависимoсти oт услoвий рельефа (при пoдъёме на 10 м давление пoнижается примернo на 1 мм рт.ст.).